EXS1314 LDDU-EGBB

Flight info

Callsign EXS1314
Flight time N/A
Altitude 38000
Route AMUGO DCT SPL DCT ZDA DCT MONFA DCT BAKOR DCT SOTOV DCT KPT L608 TEDGO DCT SUNEG L608 ULNOK DCT ADENU L608 LIRSU DCT DENUT L610 HEMEL
Aircraft B738/M-SDE2E3FGHIRWXY/LB1

Departure

Time 2026-04-30 20:36
Airport Dubrovnik Ruđer Bošković Airport (LDDU)

Arrival

Time N/A
Airport Birmingham Airport (EGBB)
Time Latitude Longitude Altitude Speed Heading
2026-04-30 20:17 42.56092 18.26305 533 ft 0 kts 208°
2026-04-30 20:27 42.56123 18.26327 533 ft 4 kts 212°
2026-04-30 20:27 42.56130 18.26368 533 ft 3 kts 298°
2026-04-30 20:28 42.56121 18.26393 533 ft 0 kts 298°
2026-04-30 20:32 42.56188 18.26222 533 ft 19 kts 298°
2026-04-30 20:32 42.56312 18.25913 533 ft 18 kts 299°
2026-04-30 20:33 42.56369 18.25766 533 ft 17 kts 298°
2026-04-30 20:33 42.56502 18.25433 533 ft 20 kts 297°
2026-04-30 20:33 42.56568 18.25267 533 ft 20 kts 298°
2026-04-30 20:34 42.56694 18.24949 533 ft 19 kts 298°
2026-04-30 20:34 42.56837 18.24671 533 ft 18 kts 349°
2026-04-30 20:35 42.56932 18.24753 532 ft 17 kts 71°
2026-04-30 20:35 42.56901 18.24902 532 ft 17 kts 118°
2026-04-30 20:35 42.56428 18.26093 533 ft 136 kts 118°
2026-04-30 20:36 42.55885 18.27431 654 ft 180 kts 117°
2026-04-30 20:36 42.55193 18.28937 1311 ft 190 kts 116°
2026-04-30 20:36 42.53948 18.32212 2697 ft 207 kts 112°
2026-04-30 20:37 42.53114 18.33869 3142 ft 221 kts 142°
2026-04-30 20:37 42.51660 18.34427 3771 ft 224 kts 186°
2026-04-30 20:37 42.50254 18.33566 4383 ft 228 kts 224°
2026-04-30 20:37 42.49298 18.31769 4788 ft 247 kts 234°
2026-04-30 20:38 42.47986 18.30163 5012 ft 275 kts 205°
2026-04-30 20:38 42.46035 18.29567 5278 ft 300 kts 185°
2026-04-30 20:38 42.43872 18.29183 5627 ft 322 kts 189°
2026-04-30 20:39 42.39527 18.27493 7191 ft 332 kts 216°
2026-04-30 20:39 42.38017 18.25147 7974 ft 336 kts 244°
2026-04-30 20:39 42.37497 18.22087 8718 ft 339 kts 272°
2026-04-30 20:40 42.39519 18.16459 10318 ft 341 kts 309°
2026-04-30 20:40 42.40864 18.13785 11073 ft 346 kts 300°
2026-04-30 20:40 42.41901 18.10819 11820 ft 351 kts 295°
2026-04-30 20:41 42.43681 18.04612 13329 ft 356 kts 291°
2026-04-30 20:41 42.44479 18.01466 14096 ft 357 kts 290°
2026-04-30 20:41 42.45247 17.98287 15052 ft 351 kts 289°
2026-04-30 20:41 42.45981 17.95168 15842 ft 350 kts 289°
2026-04-30 20:42 42.46714 17.92009 16541 ft 352 kts 289°
2026-04-30 20:42 42.47445 17.88838 17212 ft 354 kts 289°
2026-04-30 20:42 42.48912 17.82438 18538 ft 357 kts 288°
2026-04-30 20:43 42.49649 17.79222 19181 ft 358 kts 288°
2026-04-30 20:43 42.50390 17.75986 19776 ft 360 kts 288°
2026-04-30 20:43 42.51135 17.72731 20362 ft 362 kts 288°
2026-04-30 20:44 42.52633 17.66165 21475 ft 367 kts 288°
2026-04-30 20:44 42.53386 17.62851 22011 ft 369 kts 288°
2026-04-30 20:44 42.55645 17.56652 23042 ft 373 kts 310°
2026-04-30 20:45 42.59362 17.51659 23994 ft 378 kts 314°
2026-04-30 20:45 42.61279 17.49192 24412 ft 382 kts 314°
2026-04-30 20:45 42.63211 17.46700 24847 ft 384 kts 314°
2026-04-30 20:46 42.68993 17.39157 26138 ft 388 kts 313°
2026-04-30 20:46 42.70938 17.36594 26529 ft 390 kts 313°
2026-04-30 20:47 42.74844 17.31432 27320 ft 392 kts 313°
2026-04-30 20:47 42.76806 17.28831 27673 ft 395 kts 313°
2026-04-30 20:48 42.80759 17.23586 28377 ft 398 kts 313°
2026-04-30 20:48 42.82743 17.20950 28739 ft 398 kts 313°
2026-04-30 20:48 42.84704 17.18341 29043 ft 400 kts 313°
2026-04-30 20:48 42.86705 17.15677 29355 ft 402 kts 313°
2026-04-30 20:49 42.88712 17.13004 29661 ft 404 kts 313°
2026-04-30 20:49 42.90718 17.10326 29957 ft 405 kts 313°
2026-04-30 20:49 42.92738 17.07629 30237 ft 406 kts 312°
2026-04-30 20:50 42.96803 17.02195 30752 ft 410 kts 313°
2026-04-30 20:50 42.98843 16.99464 31119 ft 409 kts 313°
2026-04-30 20:50 43.00877 16.96738 31431 ft 409 kts 313°
2026-04-30 20:50 43.02909 16.94013 31693 ft 410 kts 313°
2026-04-30 20:51 43.04941 16.91284 31996 ft 410 kts 313°
2026-04-30 20:51 43.08977 16.85858 32616 ft 409 kts 313°
2026-04-30 20:51 43.11003 16.83131 32897 ft 409 kts 313°
2026-04-30 20:52 43.13035 16.80394 33161 ft 409 kts 313°
2026-04-30 20:52 43.15064 16.77656 33456 ft 408 kts 313°
2026-04-30 20:52 43.19117 16.72174 33924 ft 410 kts 313°
2026-04-30 20:53 43.21141 16.69434 34209 ft 409 kts 313°
2026-04-30 20:53 43.23166 16.66691 34503 ft 408 kts 313°
2026-04-30 20:53 43.25192 16.63945 34647 ft 411 kts 313°
2026-04-30 20:54 43.29242 16.58444 35042 ft 412 kts 313°
2026-04-30 20:54 43.31282 16.55669 35250 ft 413 kts 313°
2026-04-30 20:54 43.33318 16.52898 35482 ft 412 kts 313°
2026-04-30 20:55 43.37296 16.47472 35838 ft 415 kts 313°
2026-04-30 20:55 43.39341 16.44680 36064 ft 415 kts 313°
2026-04-30 20:55 43.41388 16.41884 36265 ft 414 kts 313°
2026-04-30 20:56 43.45502 16.36254 36538 ft 418 kts 313°
2026-04-30 20:56 43.47557 16.33438 36777 ft 416 kts 313°
2026-04-30 20:56 43.51564 16.27759 37357 ft 411 kts 311°
2026-04-30 20:57 43.53469 16.24821 37528 ft 411 kts 310°
2026-04-30 20:57 43.57252 16.18854 37741 ft 414 kts 310°
2026-04-30 20:58 43.61052 16.12877 38013 ft 416 kts 310°
2026-04-30 20:58 43.62969 16.09877 38129 ft 417 kts 310°
2026-04-30 20:58 43.64886 16.06879 38252 ft 417 kts 310°
2026-04-30 20:58 43.66792 16.03901 38253 ft 419 kts 310°
2026-04-30 20:59 43.72560 15.94877 38269 ft 415 kts 310°
2026-04-30 21:00 43.80126 15.82998 38272 ft 410 kts 310°
2026-04-30 21:01 43.85763 15.74113 38289 ft 408 kts 310°
2026-04-30 21:02 43.91400 15.65206 38292 ft 411 kts 310°
2026-04-30 21:02 43.95174 15.59220 38307 ft 412 kts 311°
2026-04-30 21:03 43.98941 15.53233 38297 ft 415 kts 311°
2026-04-30 21:03 44.02749 15.47174 38284 ft 417 kts 311°
2026-04-30 21:04 44.06577 15.41069 38302 ft 419 kts 311°
2026-04-30 21:04 44.12426 15.31968 38297 ft 421 kts 314°
2026-04-30 21:05 44.16516 15.26118 38293 ft 422 kts 314°
2026-04-30 21:05 44.20596 15.20285 38295 ft 423 kts 314°
2026-04-30 21:06 44.24679 15.14390 38294 ft 423 kts 314°
2026-04-30 21:06 44.28755 15.08468 38288 ft 422 kts 314°
2026-04-30 21:07 44.32807 15.02556 38306 ft 421 kts 314°
2026-04-30 21:07 44.36850 14.96643 38301 ft 420 kts 314°
2026-04-30 21:08 44.40885 14.90732 38306 ft 419 kts 314°
2026-04-30 21:08 44.44895 14.84843 38310 ft 418 kts 314°
2026-04-30 21:09 44.48893 14.78960 38312 ft 417 kts 314°
2026-04-30 21:09 44.52865 14.73104 38315 ft 416 kts 314°
2026-04-30 21:10 44.56843 14.67224 38323 ft 415 kts 314°
2026-04-30 21:10 44.60813 14.61345 38325 ft 415 kts 314°
2026-04-30 21:11 44.64761 14.55487 38333 ft 415 kts 314°
2026-04-30 21:11 44.68735 14.49575 38327 ft 417 kts 314°
2026-04-30 21:12 44.72049 14.44634 38322 ft 417 kts 314°
2026-04-30 21:12 44.76035 14.38688 38324 ft 417 kts 314°
2026-04-30 21:13 44.80024 14.32723 38320 ft 418 kts 314°
2026-04-30 21:13 44.84017 14.26741 38323 ft 419 kts 314°
2026-04-30 21:14 44.88002 14.20755 38321 ft 419 kts 314°
2026-04-30 21:14 44.91932 14.14837 38323 ft 420 kts 314°
2026-04-30 21:15 44.95903 14.08844 38323 ft 420 kts 314°
2026-04-30 21:15 44.99895 14.02800 38322 ft 421 kts 314°
2026-04-30 21:16 45.03894 13.96742 38327 ft 421 kts 314°
2026-04-30 21:16 45.07888 13.90675 38318 ft 421 kts 314°
2026-04-30 21:17 45.11855 13.84633 38360 ft 412 kts 314°
2026-04-30 21:17 45.15683 13.78790 38300 ft 405 kts 314°
2026-04-30 21:18 45.19540 13.72897 38338 ft 409 kts 314°
2026-04-30 21:18 45.23433 13.66932 38353 ft 415 kts 314°
2026-04-30 21:19 45.27390 13.60856 38354 ft 421 kts 314°
2026-04-30 21:19 45.31303 13.54834 38352 ft 425 kts 314°
2026-04-30 21:20 45.35328 13.48625 38350 ft 428 kts 314°
2026-04-30 21:20 45.39347 13.42411 38337 ft 423 kts 314°
2026-04-30 21:21 45.43287 13.36306 38347 ft 417 kts 314°
2026-04-30 21:22 45.49167 13.27219 38341 ft 415 kts 316°
2026-04-30 21:23 45.57551 13.15912 38348 ft 415 kts 319°
2026-04-30 21:23 45.63897 13.07426 38347 ft 418 kts 318°
2026-04-30 21:24 45.68137 13.01697 38343 ft 420 kts 318°
2026-04-30 21:24 45.72387 12.95932 38344 ft 421 kts 318°
2026-04-30 21:25 45.78763 12.87258 38341 ft 423 kts 318°
2026-04-30 21:26 45.85173 12.78510 38343 ft 424 kts 318°
2026-04-30 21:27 45.91595 12.69718 38332 ft 425 kts 318°
2026-04-30 21:27 45.95870 12.63845 38325 ft 425 kts 318°
2026-04-30 21:28 46.02245 12.55070 38324 ft 424 kts 318°
2026-04-30 21:29 46.08623 12.46258 38326 ft 422 kts 318°
2026-04-30 21:30 46.19204 12.31577 38317 ft 421 kts 318°
2026-04-30 21:31 46.29740 12.16872 38331 ft 419 kts 318°
2026-04-30 21:32 46.36053 12.08002 38319 ft 422 kts 318°
2026-04-30 21:32 46.40267 12.02078 38332 ft 423 kts 318°
2026-04-30 21:33 46.46634 11.93128 38330 ft 425 kts 318°
2026-04-30 21:34 46.50882 11.87119 38318 ft 426 kts 318°
2026-04-30 21:34 46.57233 11.78108 38329 ft 427 kts 318°
2026-04-30 21:35 46.61480 11.72062 38333 ft 427 kts 317°
2026-04-30 21:35 46.65588 11.65798 38307 ft 427 kts 316°
2026-04-30 21:36 46.69651 11.59485 38294 ft 426 kts 316°
2026-04-30 21:37 46.77733 11.46991 38284 ft 423 kts 317°
2026-04-30 21:37 46.81770 11.40719 38287 ft 423 kts 317°
2026-04-30 21:38 46.85807 11.34463 38295 ft 422 kts 317°
2026-04-30 21:38 46.89805 11.28261 38321 ft 420 kts 317°
2026-04-30 21:39 46.93814 11.22024 38311 ft 419 kts 319°
2026-04-30 21:39 46.98336 11.16790 38328 ft 412 kts 328°
2026-04-30 21:40 47.03026 11.11916 38312 ft 413 kts 328°
2026-04-30 21:40 47.07701 11.07017 38326 ft 413 kts 328°
2026-04-30 21:41 47.12338 11.02110 38332 ft 413 kts 328°
2026-04-30 21:41 47.17003 10.97147 38343 ft 414 kts 328°
2026-04-30 21:42 47.21678 10.92162 38337 ft 415 kts 328°
2026-04-30 21:42 47.26373 10.87149 38328 ft 417 kts 328°
2026-04-30 21:43 47.30276 10.82973 38332 ft 418 kts 328°
2026-04-30 21:43 47.35783 10.77068 38331 ft 419 kts 328°
2026-04-30 21:44 47.40505 10.71996 38327 ft 419 kts 329°
2026-04-30 21:44 47.45204 10.66930 38331 ft 417 kts 328°
2026-04-30 21:45 47.49890 10.61867 38312 ft 416 kts 329°
2026-04-30 21:45 47.54554 10.56812 38335 ft 415 kts 329°
2026-04-30 21:46 47.59194 10.51779 38334 ft 414 kts 329°
2026-04-30 21:46 47.63854 10.46714 38330 ft 414 kts 329°
2026-04-30 21:47 47.68473 10.41699 38330 ft 414 kts 329°
2026-04-30 21:47 47.73140 10.36588 38324 ft 414 kts 329°
2026-04-30 21:48 47.77722 10.31402 38321 ft 415 kts 327°
2026-04-30 21:48 47.82145 10.25942 38324 ft 416 kts 326°
2026-04-30 21:49 47.86588 10.20424 38321 ft 415 kts 326°
2026-04-30 21:49 47.90320 10.15826 38319 ft 416 kts 326°
2026-04-30 21:50 47.94766 10.10364 38322 ft 416 kts 327°
2026-04-30 21:50 47.99237 10.04883 38326 ft 416 kts 327°
2026-04-30 21:51 48.03714 9.99373 38322 ft 417 kts 326°
2026-04-30 21:51 48.08194 9.93854 38321 ft 417 kts 326°
2026-04-30 21:52 48.12645 9.88351 38324 ft 417 kts 326°
2026-04-30 21:52 48.17121 9.82803 38320 ft 417 kts 326°
2026-04-30 21:53 48.21600 9.77239 38320 ft 418 kts 326°
2026-04-30 21:53 48.26076 9.71668 38323 ft 418 kts 326°
2026-04-30 21:54 48.30526 9.66117 38320 ft 418 kts 326°
2026-04-30 21:54 48.34974 9.60541 38324 ft 419 kts 326°
2026-04-30 21:55 48.39430 9.54827 38322 ft 420 kts 325°
2026-04-30 21:55 48.43870 9.49093 38324 ft 420 kts 325°
2026-04-30 21:56 48.48311 9.43361 38322 ft 420 kts 325°
2026-04-30 21:56 48.52755 9.37624 38327 ft 420 kts 325°
2026-04-30 21:57 48.57167 9.31912 38324 ft 421 kts 325°
2026-04-30 21:57 48.61678 9.26280 38312 ft 417 kts 332°
2026-04-30 21:58 48.66791 9.22389 38330 ft 409 kts 341°
2026-04-30 21:58 48.72020 9.18955 38325 ft 410 kts 341°
2026-04-30 21:59 48.77258 9.15467 38322 ft 412 kts 340°
2026-04-30 22:00 48.85129 9.10149 38323 ft 413 kts 340°
2026-04-30 22:00 48.92967 9.04829 38327 ft 414 kts 340°
2026-04-30 22:01 48.98236 9.01237 38322 ft 415 kts 340°
2026-04-30 22:01 49.03518 8.97629 38329 ft 415 kts 340°
2026-04-30 22:02 49.08785 8.94024 38330 ft 415 kts 340°
2026-04-30 22:02 49.14060 8.90411 38339 ft 415 kts 340°
2026-04-30 22:03 49.19306 8.86809 38332 ft 415 kts 341°
2026-04-30 22:03 49.24727 8.83898 38343 ft 411 kts 347°
2026-04-30 22:04 49.30183 8.81309 38342 ft 411 kts 347°
2026-04-30 22:05 49.38344 8.77385 38336 ft 411 kts 346°
2026-04-30 22:05 49.43760 8.74734 38338 ft 412 kts 346°
2026-04-30 22:06 49.49221 8.72057 38345 ft 411 kts 346°
2026-04-30 22:06 49.57411 8.68021 38353 ft 412 kts 346°
2026-04-30 22:07 49.62885 8.65319 38342 ft 413 kts 347°
2026-04-30 22:07 49.68353 8.62612 38350 ft 413 kts 345°
2026-04-30 22:08 49.73485 8.58448 38355 ft 424 kts 327°
2026-04-30 22:08 49.77846 8.52249 38359 ft 429 kts 321°
2026-04-30 22:09 49.82160 8.45845 38358 ft 431 kts 318°
2026-04-30 22:09 49.83934 8.42371 38354 ft 438 kts 305°
2026-04-30 22:09 49.85295 8.38114 38363 ft 445 kts 294°
2026-04-30 22:10 49.86685 8.28715 38365 ft 451 kts 284°
2026-04-30 22:10 49.87757 8.19130 38357 ft 452 kts 283°
2026-04-30 22:11 49.89439 8.04704 38353 ft 454 kts 284°
2026-04-30 22:12 49.90595 7.95066 38344 ft 454 kts 284°
2026-04-30 22:12 49.91746 7.85432 38339 ft 454 kts 284°
2026-04-30 22:13 49.92891 7.75790 38334 ft 453 kts 284°
2026-04-30 22:13 49.94020 7.66219 38330 ft 453 kts 284°
2026-04-30 22:14 49.95153 7.56534 38326 ft 452 kts 283°
2026-04-30 22:14 49.96263 7.46939 38322 ft 451 kts 284°
2026-04-30 22:15 49.97361 7.37409 38324 ft 451 kts 283°
2026-04-30 22:15 49.98452 7.27840 38324 ft 450 kts 283°
2026-04-30 22:16 49.99538 7.18252 38325 ft 449 kts 283°
2026-04-30 22:17 50.01681 6.99107 38327 ft 448 kts 282°
2026-04-30 22:17 50.04366 6.85441 38327 ft 440 kts 302°
2026-04-30 22:18 50.08890 6.73030 38322 ft 439 kts 302°
2026-04-30 22:19 50.13343 6.60538 38322 ft 440 kts 301°
2026-04-30 22:20 50.17768 6.47962 38321 ft 441 kts 301°
2026-04-30 22:20 50.22414 6.35659 38316 ft 441 kts 304°
2026-04-30 22:21 50.25685 6.27494 38315 ft 442 kts 304°
2026-04-30 22:21 50.28934 6.19311 38314 ft 443 kts 304°
2026-04-30 22:22 50.32147 6.11128 38326 ft 444 kts 303°
2026-04-30 22:22 50.35374 6.02860 38320 ft 444 kts 303°
2026-04-30 22:23 50.38587 5.94592 38318 ft 445 kts 303°
2026-04-30 22:23 50.41784 5.86328 38311 ft 445 kts 303°
2026-04-30 22:24 50.45004 5.77991 38311 ft 444 kts 303°
2026-04-30 22:24 50.48183 5.69750 38313 ft 444 kts 303°
2026-04-30 22:25 50.51370 5.61455 38317 ft 443 kts 303°
2026-04-30 22:25 50.54552 5.53142 38323 ft 442 kts 302°
2026-04-30 22:26 50.59290 5.40719 38321 ft 441 kts 302°
2026-04-30 22:27 50.62422 5.32473 38321 ft 441 kts 302°
2026-04-30 22:27 50.67145 5.19983 38322 ft 441 kts 302°
2026-04-30 22:28 50.71843 5.07502 38313 ft 441 kts 302°
2026-04-30 22:29 50.78036 4.90953 38303 ft 441 kts 301°
2026-04-30 22:31 50.88390 4.63037 38295 ft 442 kts 301°
2026-04-30 22:32 50.96141 4.41940 38296 ft 442 kts 300°
2026-04-30 22:33 51.03841 4.20830 38306 ft 442 kts 300°
2026-04-30 22:35 51.11511 3.99610 38306 ft 443 kts 300°
2026-04-30 22:36 51.19160 3.78274 38294 ft 443 kts 300°
2026-04-30 22:37 51.24410 3.60632 38295 ft 442 kts 281°
2026-04-30 22:38 51.26806 3.41340 38288 ft 443 kts 281°
2026-04-30 22:39 51.28691 3.26890 38278 ft 443 kts 281°
2026-04-30 22:40 51.32406 2.97968 38270 ft 444 kts 281°
2026-04-30 22:41 51.35453 2.73750 38267 ft 444 kts 280°
2026-04-30 22:43 51.38995 2.44723 38264 ft 443 kts 280°
2026-04-30 22:44 51.41306 2.25414 38256 ft 442 kts 280°
2026-04-30 22:45 51.44838 1.96358 38255 ft 442 kts 279°
2026-04-30 22:47 51.48207 1.67299 38248 ft 441 kts 279°
2026-04-30 22:48 51.50403 1.47869 38244 ft 442 kts 279°
2026-04-30 22:49 51.52045 1.33212 37218 ft 441 kts 278°
2026-04-30 22:49 51.53631 1.18894 36087 ft 430 kts 278°
2026-04-30 22:50 51.55686 1.00117 34447 ft 422 kts 278°
2026-04-30 22:51 51.56680 0.90915 33641 ft 419 kts 277°
2026-04-30 22:51 51.57662 0.81717 32904 ft 414 kts 277°
2026-04-30 22:52 51.58147 0.77150 32525 ft 412 kts 277°
2026-04-30 22:52 51.59105 0.68104 31800 ft 408 kts 277°
2026-04-30 22:53 51.60075 0.59220 31078 ft 404 kts 278°
2026-04-30 22:53 51.61066 0.50365 30359 ft 399 kts 276°
2026-04-30 22:53 51.61500 0.46050 30013 ft 397 kts 276°
2026-04-30 22:54 51.62383 0.37214 29271 ft 393 kts 276°
2026-04-30 22:55 51.63689 0.24286 28179 ft 386 kts 276°
2026-04-30 22:55 51.64590 0.15855 27445 ft 384 kts 282°
2026-04-30 22:56 51.66573 0.07886 26749 ft 382 kts 293°
2026-04-30 22:56 51.69922 -0.03697 25677 ft 377 kts 292°
2026-04-30 22:57 51.72087 -0.11347 24971 ft 374 kts 291°
2026-04-30 22:57 51.74224 -0.18970 24264 ft 371 kts 291°
2026-04-30 22:58 51.76336 -0.26540 23562 ft 368 kts 290°
2026-04-30 22:59 51.79473 -0.37788 22539 ft 364 kts 294°
2026-04-30 22:59 51.84870 -0.46261 21578 ft 367 kts 329°